This demonstration page uses our WeatherBlox Daily Observations layout. Learn more.

Left ArrowRight Arrow

53.62937, 11.41316

Hourly Observations for May 22, 2016

Temp ( °F °C ) Dew Point ( °F °C ) Humidity (%) Winds ( mph kmh ) Pressure ( in mb ) Visibility ( mi km ) Precip ( " mm )
6:20 am 06:20 Mostly Sunny 55 13 50 10 82 82 E 10 17 29.88 1012 7 11 N/A
6:50 am 06:50 Mostly Sunny 59 15 50 10 72 72 E 9 15 29.88 1012 7 11 N/A
7:20 am 07:20 Mostly Sunny 61 16 52 11 72 72 E 8 13 29.88 1012 7 11 N/A
7:50 am 07:50 Mostly Sunny 63 17 52 11 68 68 ENE 8 13 29.88 1012 7 11 N/A
8:20 am 08:20 Mostly Sunny 66 19 54 12 64 64 E 7 11 29.88 1012 7 11 N/A
8:50 am 08:50 Mostly Sunny 70 21 54 12 57 57 ESE 7 11 29.85 1011 7 11 N/A
9:20 am 09:20 Mostly Sunny 72 22 52 11 50 50 SSE 12 19 29.85 1011 7 11 N/A
9:50 am 09:50 Mostly Sunny 72 22 52 11 50 50 SSE 13 20 29.85 1011 7 11 N/A
10:20 am 10:20 Mostly Sunny 73 23 52 11 47 47 SSE 15 24 29.85 1011 7 11 N/A
10:50 am 10:50 Mostly Sunny 75 24 52 11 44 44 SSE 16 26 29.83 1010 7 11 N/A
11:20 am 11:20 Mostly Sunny 75 24 52 11 44 44 SSE 14 22 29.83 1010 7 11 N/A
11:50 am 11:50 Mostly Sunny 75 24 52 11 44 44 SSE 14 22 29.83 1010 7 11 N/A
12:20 pm 12:20 Mostly Sunny 79 26 52 11 39 39 SE 17 28 29.80 1009 7 11 N/A
12:29 pm 12:29 Mostly Sunny 77 25 52 11 42 42 SSE 16 26 29.80 1009 7 11 N/A
12:50 pm 12:50 Mostly Sunny 77 25 50 10 39 39 SSE 18 30 29.80 1009 7 11 N/A
1:20 pm 13:20 Mostly Sunny 79 26 48 9 34 34 SSE 21 33 29.80 1009 7 11 N/A
1:50 pm 13:50 Mostly Sunny 81 27 48 9 32 32 S 18 30 29.77 1008 7 11 N/A
2:07 pm 14:07 Mostly Sunny 81 27 45 7 28 28 S 14 22 29.77 1008 7 11 N/A
2:20 pm 14:20 Mostly Sunny 81 27 46 8 30 30 SE 15 24 29.77 1008 7 11 N/A
2:50 pm 14:50 Mostly Sunny 82 28 48 9 30 30 SE 14 22 29.77 1008 7 11 N/A
3:20 pm 15:20 Mostly Sunny 82 28 50 10 32 32 SE 16 26 29.77 1008 7 11 N/A
3:50 pm 15:50 Mostly Sunny 82 28 50 10 32 32 SE 17 28 29.74 1007 7 11 N/A
4:20 pm 16:20 Mostly Sunny 82 28 48 9 30 30 SSE 15 24 29.74 1007 7 11 N/A
4:50 pm 16:50 Mostly Sunny 82 28 48 9 30 30 SSE 16 26 29.74 1007 7 11 N/A
5:20 pm 17:20 Mostly Sunny 84 29 46 8 27 27 SE 16 26 29.74 1007 7 11 N/A
5:50 pm 17:50 Mostly Sunny 82 28 43 6 25 25 S 14 22 29.74 1007 7 11 N/A
6:20 pm 18:20 Mostly Sunny 82 28 45 7 26 26 SSE 10 17 29.74 1007 7 11 N/A
6:50 pm 18:50 Mostly Sunny 81 27 45 7 28 28 SE 12 19 29.74 1007 7 11 N/A

Powered by AerisWeather